TimeAKDT,TemperatureF,Dew PointF,Humidity,Sea Level PressureIn,VisibilityMPH,Wind Direction,Wind SpeedMPH,Gust SpeedMPH,PrecipitationIn,Events,Conditions,WindDirDegrees,DateUTC
12:22 AM,10.0,6.1,84,29.45,3.0,Calm,Calm,-,N/A,Snow,Light Snow,0,2013-04-09 08:22:00
12:53 AM,10.0,5.0,80,29.47,4.0,Calm,Calm,-,N/A,Snow,Light Snow,0,2013-04-09 08:53:00
1:53 AM,9.0,5.0,84,29.44,4.0,Calm,Calm,-,N/A,Snow,Light Snow,0,2013-04-09 09:53:00
2:53 AM,9.0,5.0,84,29.41,4.0,Calm,Calm,-,N/A,Snow,Light Snow,0,2013-04-09 10:53:00
3:53 AM,9.0,3.9,80,29.37,3.0,Calm,Calm,-,N/A,Snow,Light Snow,0,2013-04-09 11:53:00
4:53 AM,8.1,3.9,83,29.34,3.0,Calm,Calm,-,N/A,Snow,Light Snow,0,2013-04-09 12:53:00
5:53 AM,8.1,3.0,80,29.31,3.0,Calm,Calm,-,N/A,Snow,Light Snow,0,2013-04-09 13:53:00
6:53 AM,7.0,3.0,84,29.29,3.0,South,3.5,-,N/A,Snow,Light Snow,190,2013-04-09 14:53:00
7:16 AM,7.0,3.0,84,29.25,2.0,Calm,Calm,-,N/A,Snow,Light Snow,0,2013-04-09 15:16:00
7:53 AM,7.0,3.0,84,29.28,2.0,Calm,Calm,-,N/A,Snow,Light Snow,0,2013-04-09 15:53:00
8:53 AM,8.1,3.0,80,29.25,2.0,Calm,Calm,-,N/A,Snow,Light Snow,0,2013-04-09 16:53:00
9:53 AM,9.0,3.0,77,29.24,2.0,Calm,Calm,-,N/A,Snow,Light Snow,0,2013-04-09 17:53:00
10:53 AM,10.0,3.9,76,29.22,2.0,South,3.5,-,N/A,Snow,Light Snow,190,2013-04-09 18:53:00
11:35 AM,10.0,3.9,76,29.17,3.0,South,6.9,-,N/A,Snow,Light Snow,190,2013-04-09 19:35:00
11:53 AM,10.0,5.0,80,29.21,3.0,SSW,5.8,-,N/A,Snow,Light Snow,200,2013-04-09 19:53:00
12:21 PM,10.9,5.0,77,29.16,2.0,South,9.2,-,N/A,Snow,Light Snow,190,2013-04-09 20:21:00
12:33 PM,10.9,5.0,77,29.16,1.5,SSW,9.2,-,N/A,Snow,Light Snow,200,2013-04-09 20:33:00
12:53 PM,10.9,6.1,81,29.19,1.5,South,8.1,-,N/A,Snow,Light Snow,190,2013-04-09 20:53:00
1:53 PM,12.9,6.1,74,29.18,2.0,Variable,5.8,-,N/A,Snow,Light Snow,0,2013-04-09 21:53:00
2:38 PM,12.9,7.0,77,29.14,1.5,SW,6.9,-,N/A,Snow,Light Snow,230,2013-04-09 22:38:00
2:46 PM,12.9,7.0,77,29.14,0.8,SW,6.9,-,N/A,Snow,Light Snow,230,2013-04-09 22:46:00
2:53 PM,12.9,7.0,77,29.18,0.8,SW,5.8,-,N/A,Snow,Light Snow,230,2013-04-09 22:53:00
3:28 PM,12.0,6.1,77,29.15,1.0,WSW,9.2,-,N/A,Snow,Light Snow,240,2013-04-09 23:28:00
3:53 PM,12.0,5.0,73,29.20,0.8,WSW,11.5,-,N/A,Snow,Light Snow,240,2013-04-09 23:53:00
4:53 PM,10.9,5.0,77,29.22,0.5,WSW,10.4,-,N/A,Snow,Light Snow,240,2013-04-10 00:53:00
5:06 PM,10.9,6.1,81,29.19,0.5,WSW,8.1,-,N/A,Snow,Light Snow,240,2013-04-10 01:06:00
5:18 PM,10.9,6.1,81,29.20,0.5,WSW,11.5,-,N/A,Snow,Light Snow,240,2013-04-10 01:18:00
5:53 PM,10.9,5.0,77,29.24,0.5,SW,6.9,-,N/A,Snow,Light Snow,230,2013-04-10 01:53:00
6:29 PM,10.9,5.0,77,29.22,0.8,WSW,8.1,-,N/A,Snow,Light Snow,240,2013-04-10 02:29:00
6:53 PM,12.0,5.0,73,29.27,0.8,WSW,8.1,-,N/A,Snow,Light Snow,240,2013-04-10 02:53:00
7:53 PM,12.0,6.1,77,29.31,1.0,SW,5.8,-,N/A,Snow,Light Snow,220,2013-04-10 03:53:00
8:36 PM,10.9,5.0,77,29.30,2.0,SW,8.1,-,N/A,Snow,Light Snow,230,2013-04-10 04:36:00
8:53 PM,10.9,3.9,73,29.35,3.0,SW,8.1,-,N/A,Snow,Light Snow,220,2013-04-10 04:53:00
9:53 PM,10.9,3.0,70,29.40,7.0,Variable,5.8,-,N/A,Snow,Light Snow,0,2013-04-10 05:53:00
10:53 PM,10.0,3.0,73,29.45,7.0,WSW,6.9,-,N/A,Snow,Light Snow,240,2013-04-10 06:53:00
11:53 PM,9.0,-0.0,67,29.47,10.0,WSW,8.1,-,N/A,,Overcast,250,2013-04-10 07:53:00